• In Uzbekistan
  • List of Countries
  • For 7 days
  • Water Temperature
  • Satellite Maps
  • Weather Map
  • Weather Widgets
  • user-avatar
    Login

    Hourly Weather Canberra

    Today, 29 April, Saturday

    Time Temperature Precipitation Wind Pressure Humidity
    00:00 +6°C° 0 mm 1 mps 711 mmHg 83%
    01:00 +5°C° 0 mm 1 mps 711 mmHg 83%
    02:00 +5°C° 0 mm 1 mps 711 mmHg 85%
    03:00 +5°C° 0 mm 1 mps 711 mmHg 87%
    04:00 +5°C° 0 mm 1 mps 711 mmHg 87%
    05:00 +5°C° 0 mm 1 mps 711 mmHg 88%
    06:00 +4°C° 0 mm 1 mps 711 mmHg 88%
    07:00 +4°C° 0 mm 1 mps 711 mmHg 89%
    08:00 +8°C° 0 mm 1 mps 712 mmHg 76%
    09:00 +12°C° 0 mm 1 mps 712 mmHg 63%
    10:00 +16°C° 0 mm 1 mps 713 mmHg 50%
    11:00 +18°C° 0 mm 1 mps 713 mmHg 46%
    12:00 +20°C° 0 mm 1 mps 713 mmHg 42%
    13:00 +21°C° 0 mm 1 mps 712 mmHg 39%
    14:00 +21°C° 0 mm 1 mps 712 mmHg 43%
    15:00 +20°C° 0 mm 1 mps 712 mmHg 47%
    16:00 +17°C° 0 mm 2 mps 712 mmHg 57%
    17:00 +14°C° 0 mm 1 mps 712 mmHg 69%
    18:00 +12°C° 0 mm 1 mps 712 mmHg 82%
    19:00 +9°C° 0 mm 1 mps 712 mmHg 95%
    20:00 +9°C° 0 mm 1 mps 712 mmHg 94%
    21:00 +9°C° 0 mm 1 mps 712 mmHg 93%
    22:00 +8°C° 0 mm 1 mps 712 mmHg 91%
    23:00 +8°C° 0 mm 1 mps 712 mmHg 93%

    Tomorrow, 30 April, Sunday

    Time Temperature Precipitation Wind Pressure Humidity
    00:00 +8°C° 0 mm 1 mps 712 mmHg 94%
    01:00 +8°C° 0 mm 1 mps 712 mmHg 96%
    02:00 +7°C° 0 mm 1 mps 712 mmHg 96%
    03:00 +7°C° 0 mm 1 mps 712 mmHg 97%
    04:00 +7°C° 0 mm 1 mps 712 mmHg 97%
    05:00 +7°C° 0 mm 1 mps 713 mmHg 97%
    06:00 +7°C° 0 mm 1 mps 713 mmHg 97%
    07:00 +7°C° 0 mm 1 mps 713 mmHg 96%
    08:00 +10°C° 0 mm 1 mps 713 mmHg 82%
    09:00 +13°C° 0 mm 1 mps 714 mmHg 68%
    10:00 +18°C° 0 mm 1 mps 714 mmHg 54%
    11:00 +19°C° 0 mm 1 mps 714 mmHg 49%
    12:00 +20°C° 0 mm 1 mps 713 mmHg 44%
    13:00 +21°C° 0 mm 1 mps 713 mmHg 39%
    14:00 +21°C° 0 mm 1 mps 713 mmHg 40%
    15:00 +20°C° 0 mm 1 mps 712 mmHg 42%
    16:00 +20°C° 0 mm 1 mps 712 mmHg 44%
    17:00 +16°C° 0 mm 1 mps 712 mmHg 57%
    18:00 +13°C° 0 mm 1 mps 711 mmHg 71%
    19:00 +9°C° 0 mm 1 mps 711 mmHg 85%
    20:00 +9°C° 0 mm 1 mps 711 mmHg 89%
    21:00 +8°C° 0 mm 1 mps 711 mmHg 92%
    22:00 +8°C° 0 mm 1 mps 711 mmHg 96%
    23:00 +7°C° 0 mm 1 mps 711 mmHg 96%

    Day after tomorrow, 1 May, Monday

    Time Temperature Precipitation Wind Pressure Humidity
    00:00 +7°C° 0 mm 1 mps 711 mmHg 96%
    01:00 +7°C° 0 mm 1 mps 710 mmHg 96%
    02:00 +7°C° 0 mm 1 mps 710 mmHg 95%
    03:00 +7°C° 0 mm 1 mps 710 mmHg 95%
    04:00 +7°C° 0 mm 1 mps 710 mmHg 94%
    05:00 +7°C° 0 mm 1 mps 710 mmHg 94%
    06:00 +7°C° 0 mm 1 mps 710 mmHg 94%
    07:00 +7°C° 0 mm 1 mps 710 mmHg 94%
    08:00 +9°C° 0 mm 2 mps 710 mmHg 83%
    09:00 +12°C° 0 mm 3 mps 710 mmHg 72%
    10:00 +16°C° 0 mm 3 mps 711 mmHg 61%
    11:00 +17°C° 0 mm 3 mps 710 mmHg 57%
    12:00 +18°C° 0 mm 4 mps 710 mmHg 54%
    13:00 +19°C° 0 mm 4 mps 709 mmHg 50%
    14:00 +19°C° 0 mm 4 mps 709 mmHg 52%
    15:00 +18°C° 0 mm 4 mps 709 mmHg 54%
    16:00 +18°C° 0 mm 4 mps 708 mmHg 56%
    17:00 +16°C° 0 mm 3 mps 709 mmHg 64%
    18:00 +13°C° 0 mm 3 mps 709 mmHg 72%
    19:00 +12°C° 0 mm 2 mps 709 mmHg 80%
    20:00 +12°C° 0 mm 2 mps 709 mmHg 83%
    21:00 +10°C° 0 mm 2 mps 709 mmHg 85%
    22:00 +10°C° 0 mm 2 mps 709 mmHg 87%
    23:00 +9°C° 0 mm 2 mps 709 mmHg 89%

    2 May, Tuesday

    Time Temperature Precipitation Wind Pressure Humidity
    00:00 +9°C° 0 mm 2 mps 709 mmHg 90%
    01:00 +8°C° 0 mm 2 mps 709 mmHg 91%
    02:00 +9°C° 0 mm 1 mps 709 mmHg 92%
    03:00 +9°C° 0 mm 1 mps 708 mmHg 92%
    04:00 +8°C° 0 mm 1 mps 708 mmHg 92%
    05:00 +8°C° 0 mm 1 mps 708 mmHg 93%
    06:00 +8°C° 0 mm 1 mps 709 mmHg 93%
    07:00 +8°C° 0 mm 1 mps 709 mmHg 93%
    08:00 +11°C° 0 mm 1 mps 710 mmHg 82%
    09:00 +13°C° 0 mm 2 mps 710 mmHg 70%
    10:00 +16°C° 0 mm 2 mps 711 mmHg 59%
    11:00 +17°C° 0 mm 2 mps 710 mmHg 57%
    12:00 +17°C° 0 mm 2 mps 710 mmHg 56%
    13:00 +18°C° 0 mm 3 mps 710 mmHg 55%
    14:00 +17°C° 0.1 mm 3 mps 710 mmHg 59%
    15:00 +16°C° 0.1 mm 2 mps 710 mmHg 63%
    16:00 +15°C° 0.1 mm 2 mps 710 mmHg 67%
    17:00 +14°C° 0.1 mm 2 mps 710 mmHg 74%
    18:00 +13°C° 0.1 mm 2 mps 711 mmHg 82%
    19:00 +11°C° 0.1 mm 1 mps 711 mmHg 89%
    20:00 +10°C° 0 mm 1 mps 711 mmHg 91%
    21:00 +9°C° 0 mm 1 mps 712 mmHg 93%
    22:00 +9°C° 0 mm 1 mps 712 mmHg 96%
    23:00 +8°C° 0 mm 1 mps 712 mmHg 96%

    3 May, Wednesday

    Time Temperature Precipitation Wind Pressure Humidity
    00:00 +8°C° 0 mm 1 mps 712 mmHg 96%
    01:00 +7°C° 0 mm 1 mps 712 mmHg 97%
    02:00 +7°C° 0 mm 1 mps 712 mmHg 96%
    03:00 +7°C° 0 mm 1 mps 712 mmHg 96%
    04:00 +5°C° 0 mm 2 mps 712 mmHg 95%
    05:00 +5°C° 0 mm 2 mps 713 mmHg 93%
    06:00 +5°C° 0 mm 2 mps 713 mmHg 92%
    07:00 +5°C° 0 mm 2 mps 714 mmHg 91%
    08:00 +7°C° 0 mm 2 mps 714 mmHg 79%
    09:00 +9°C° 0 mm 3 mps 715 mmHg 67%
    10:00 +10°C° 0 mm 3 mps 715 mmHg 55%
    11:00 +12°C° 0 mm 3 mps 715 mmHg 50%
    12:00 +13°C° 0 mm 3 mps 715 mmHg 45%
    13:00 +14°C° 0 mm 3 mps 715 mmHg 41%
    14:00 +13°C° 0 mm 3 mps 715 mmHg 43%
    15:00 +14°C° 0 mm 2 mps 715 mmHg 45%
    16:00 +14°C° 0 mm 2 mps 715 mmHg 47%
    17:00 +12°C° 0 mm 2 mps 716 mmHg 56%
    18:00 +9°C° 0 mm 2 mps 716 mmHg 65%
    19:00 +6°C° 0 mm 2 mps 716 mmHg 73%
    20:00 +6°C° 0 mm 2 mps 717 mmHg 77%
    21:00 +5°C° 0 mm 2 mps 717 mmHg 80%
    22:00 +4°C° 0 mm 2 mps 718 mmHg 83%
    23:00 +4°C° 0 mm 2 mps 718 mmHg 84%

    4 May, Thursday

    Time Temperature Precipitation Wind Pressure Humidity
    00:00 +4°C° 0 mm 2 mps 718 mmHg 85%
    01:00 +3°C° 0 mm 2 mps 718 mmHg 86%
    02:00 +3°C° 0 mm 2 mps 718 mmHg 86%
    03:00 +3°C° 0 mm 2 mps 718 mmHg 86%
    04:00 +3°C° 0 mm 2 mps 718 mmHg 86%
    05:00 +4°C° 0 mm 2 mps 718 mmHg 88%
    06:00 +4°C° 0 mm 2 mps 718 mmHg 89%
    07:00 +4°C° 0 mm 2 mps 719 mmHg 91%
    08:00 +7°C° 0 mm 2 mps 719 mmHg 81%
    09:00 +9°C° 0 mm 2 mps 720 mmHg 71%
    10:00 +13°C° 0 mm 2 mps 720 mmHg 61%
    11:00 +14°C° 0 mm 2 mps 719 mmHg 57%
    12:00 +15°C° 0 mm 2 mps 719 mmHg 53%
    13:00 +16°C° 0 mm 2 mps 719 mmHg 49%
    14:00 +16°C° 0 mm 2 mps 718 mmHg 52%
    15:00 +16°C° 0 mm 2 mps 718 mmHg 54%
    16:00 +15°C° 0 mm 2 mps 718 mmHg 57%
    17:00 +13°C° 0 mm 2 mps 718 mmHg 69%
    18:00 +9°C° 0 mm 2 mps 718 mmHg 82%
    19:00 +8°C° 0 mm 1 mps 718 mmHg 94%
    20:00 +7°C° 0 mm 1 mps 718 mmHg 96%
    21:00 +7°C° 0 mm 1 mps 719 mmHg 97%
    22:00 +6°C° 0 mm 1 mps 719 mmHg 98%
    23:00 +7°C° 0 mm 1 mps 719 mmHg 98%
    Show more